Kuchera_Ratio
17.0 16.7 16.7 16.0 16.6 16.3 15.4 14.1 13.2 13.8 13.2 12.4 11.7 11.4 9.8 6.7 1.7 0.0 0.0 0.0 0.0 0.0
17.5 18.0 18.0 17.8 17.0 15.7 15.4 14.7 15.0 14.6 14.2 13.1 11.8 11.2 11.6 9.4 4.5 0.8 0.0 0.0 0.0 0.0
18.6 18.3 18.1 17.9 17.7 16.9 16.2 16.0 16.0 15.5 14.6 14.0 12.8 11.0 11.3 10.3 6.9 4.4 0.0 0.0 0.0 0.0
20.2 19.3 18.8 18.6 17.9 17.6 17.0 16.5 16.5 15.9 15.7 14.8 13.9 12.3 11.7 10.8 8.5 5.6 0.1 0.0 0.0 0.0
20.8 20.3 20.1 19.8 19.0 17.9 17.8 16.9 16.7 16.7 15.9 14.9 14.1 12.9 12.5 11.9 9.4 7.8 3.4 0.0 0.0 0.0
21.9 21.6 21.6 20.9 20.2 19.2 18.6 18.1 17.6 16.6 16.3 15.6 14.7 14.0 12.5 11.4 9.6 7.8 3.8 0.0 0.0 0.0
22.0 22.3 22.2 21.6 21.4 20.6 19.6 18.8 17.6 16.9 16.3 15.4 14.5 13.5 12.1 9.9 8.5 6.9 4.5 0.0 0.0 0.0
22.2 22.5 22.5 22.2 21.6 21.0 20.1 18.9 17.5 17.0 16.0 14.6 14.0 11.9 10.6 8.3 7.5 7.2 6.0 0.0 0.0 0.0
22.4 22.3 22.4 22.3 21.9 21.4 20.4 19.1 17.6 17.1 15.9 15.4 13.4 8.9 5.6 3.3 5.0 5.2 6.2 1.7 0.0 0.0
22.4 22.3 22.6 22.4 22.0 21.9 20.9 19.2 18.7 17.3 15.6 15.1 13.6 8.2 5.5 1.7 4.4 6.6 6.0 2.0 0.0 0.0
22.5 22.4 22.5 22.6 22.4 22.1 20.5 19.8 18.9 17.3 16.0 14.9 13.7 9.0 6.3 2.8 6.9 7.5 6.3 2.6 0.0 0.0
23.2 22.7 22.4 22.6 22.7 21.8 20.9 20.3 19.0 17.1 16.1 15.3 14.0 10.6 7.1 5.7 7.3 7.8 7.8 5.8 3.3 0.0
22.8 23.6 23.1 22.8 22.6 21.4 21.1 20.2 18.2 17.4 15.3 13.8 14.7 11.7 7.9 6.9 8.3 8.0 7.8 7.5 6.3 0.0
21.7 23.1 23.0 22.1 21.3 22.0 21.3 20.2 19.4 17.9 15.5 14.5 14.2 14.0 9.1 6.6 9.3 8.7 8.0 7.9 7.7 5.6